| time (UTC) | temp C | wind direction | speed KPH | gust KPH | rain 1hr cm | rain 24hr cm | rain mn cm | humidity % | barometer mb |
| 20260506103646 | 13 | 50 | 1.6 | 3.2 | 0.00 | 0.00 | 0.00 | 88 | 1017.9 |
| 20260506103143 | 13 | 49 | 1.6 | 3.2 | 0.00 | 0.00 | 0.00 | 88 | 1017.9 |
| 20260506102641 | 13 | 37 | 3.2 | 3.2 | 0.00 | 0.00 | 0.00 | 88 | 1017.7 |
| 20260506102138 | 13 | 71 | 1.6 | 3.2 | 0.00 | 0.00 | 0.00 | 88 | 1017.9 |
| 20260506101635 | 13 | 68 | 1.6 | 1.6 | 0.00 | 0.00 | 0.00 | 88 | 1017.7 |
| 20260506101132 | 13 | 52 | 1.6 | 3.2 | 0.00 | 0.00 | 0.00 | 88 | 1017.9 |
| 20260506100631 | 13 | 52 | 1.6 | 3.2 | 0.00 | 0.00 | 0.00 | 88 | 1018.1 |
| 20260506100128 | 13 | 57 | 1.6 | 3.2 | 0.00 | 0.00 | 0.00 | 88 | 1017.7 |
| 20260506095626 | 13 | 69 | 0.0 | 1.6 | 0.00 | 0.00 | 0.00 | 87 | 1017.6 |
| 20260506095123 | 13 | 83 | 1.6 | 1.6 | 0.00 | 0.00 | 0.00 | 87 | 1017.8 |
| 20260506094620 | 13 | 64 | 1.6 | 1.6 | 0.00 | 0.00 | 0.00 | 86 | 1017.8 |
| 20260506094118 | 13 | 103 | 1.6 | 3.2 | 0.00 | 0.00 | 0.00 | 86 | 1017.9 |
| 20260506093616 | 13 | 90 | 1.6 | 3.2 | 0.00 | 0.00 | 0.00 | 86 | 1018.1 |
| 20260506093113 | 13 | 117 | 1.6 | 1.6 | 0.00 | 0.00 | 0.00 | 86 | 1017.8 |
| 20260506092611 | 13 | 91 | 0.0 | 1.6 | 0.00 | 0.00 | 0.00 | 86 | 1017.8 |
| 20260506092107 | 13 | 96 | 1.6 | 1.6 | 0.00 | 0.00 | 0.00 | 86 | 1017.6 |
| 20260506091606 | 13 | 88 | 0.0 | 1.6 | 0.00 | 0.00 | 0.00 | 87 | 1017.8 |
| 20260506091103 | 13 | 79 | 0.0 | 1.6 | 0.00 | 0.00 | 0.00 | 87 | 1017.6 |
| 20260506090601 | 13 | 79 | 1.6 | 1.6 | 0.00 | 0.00 | 0.00 | 87 | 1017.7 |
| 20260506090056 | 13 | 74 | 0.0 | 1.6 | 0.00 | 0.00 | 0.00 | 87 | 1017.4 |
| 20260506085554 | 13 | 84 | 1.6 | 1.6 | 0.00 | 0.00 | 0.00 | 87 | 1017.7 |
| 20260506085050 | 13 | 77 | 1.6 | 3.2 | 0.00 | 0.00 | 0.00 | 87 | 1017.8 |
| 20260506084547 | 13 | 88 | 1.6 | 3.2 | 0.00 | 0.00 | 0.00 | 87 | 1017.4 |
| 20260506084043 | 13 | 115 | 1.6 | 3.2 | 0.00 | 0.00 | 0.00 | 87 | 1017.6 |
| 20260506083540 | 13 | 89 | 0.0 | 1.6 | 0.00 | 0.00 | 0.00 | 87 | 1017.6 |
| 20260506083038 | 13 | 124 | 1.6 | 1.6 | 0.00 | 0.00 | 0.00 | 87 | 1017.6 |
| 20260506082534 | 13 | 116 | 1.6 | 1.6 | 0.00 | 0.00 | 0.00 | 86 | 1017.7 |
| 20260506082030 | 13 | 119 | 1.6 | 1.6 | 0.00 | 0.00 | 0.00 | 86 | 1017.9 |
| 20260506081529 | 13 | 123 | 0.0 | 1.6 | 0.00 | 0.00 | 0.00 | 86 | 1017.4 |
| 20260506081026 | 13 | 116 | 0.0 | 1.6 | 0.00 | 0.00 | 0.00 | 85 | 1017.4 |
| 20260506080523 | 13 | 126 | 1.6 | 1.6 | 0.00 | 0.00 | 0.00 | 85 | 1017.6 |
| 20260506073506 | 13 | 127 | 0.0 | 3.2 | 0.00 | 0.00 | 0.00 | 84 | 1017.3 |
| 20260506073004 | 13 | 127 | 1.6 | 1.6 | 0.00 | 0.00 | 0.00 | 83 | 1017.4 |
| 20260506072501 | 13 | 98 | 0.0 | 1.6 | 0.00 | 0.00 | 0.00 | 83 | 1017.1 |
| 20260506071959 | 13 | 92 | 0.0 | 1.6 | 0.00 | 0.00 | 0.00 | 83 | 1017.1 |
| 20260506071456 | 13 | 101 | 1.6 | 1.6 | 0.00 | 0.00 | 0.00 | 82 | 1017.0 |
| 20260506070953 | 13 | 94 | 0.0 | 1.6 | 0.00 | 0.00 | 0.00 | 82 | 1017.3 |
| 20260506070450 | 13 | 86 | 0.0 | 1.6 | 0.00 | 0.00 | 0.00 | 82 | 1016.9 |
| 20260506062428 | 14 | 104 | 1.6 | 1.6 | 0.00 | 0.05 | 0.05 | 80 | 1016.7 |
| 20260506061923 | 14 | 82 | 0.0 | 1.6 | 0.00 | 0.05 | 0.05 | 80 | 1017.0 |
| 20260506061420 | 14 | 95 | 1.6 | 3.2 | 0.00 | 0.05 | 0.05 | 80 | 1016.8 |
| 20260506060918 | 14 | 88 | 0.0 | 1.6 | 0.00 | 0.05 | 0.05 | 80 | 1016.8 |
| 20260506060416 | 14 | 109 | 3.2 | 4.8 | 0.00 | 0.05 | 0.05 | 80 | 1016.6 |
| 20260506051348 | 14 | 56 | 1.6 | 3.2 | 0.00 | 0.05 | 0.05 | 77 | 1016.4 |
| 20260506050845 | 15 | 47 | 1.6 | 1.6 | 0.00 | 0.05 | 0.05 | 78 | 1016.1 |
| 20260506050343 | 15 | 67 | 1.6 | 1.6 | 0.00 | 0.05 | 0.05 | 76 | 1016.2 |
| 20260506044833 | 14 | 90 | 0.0 | 1.6 | 0.00 | 0.05 | 0.05 | 78 | 1016.0 |
| 20260506044331 | 14 | 73 | 1.6 | 3.2 | 0.00 | 0.05 | 0.05 | 77 | 1015.8 |
| 20260506043828 | 14 | 79 | 1.6 | 4.8 | 0.00 | 0.05 | 0.05 | 78 | 1016.1 |
| 20260506043325 | 14 | 85 | 3.2 | 3.2 | 0.00 | 0.05 | 0.05 | 79 | 1015.7 |
| 20260506042823 | 14 | 91 | 3.2 | 4.8 | 0.00 | 0.05 | 0.05 | 79 | 1016.0 |
| 20260506042322 | 14 | 97 | 3.2 | 3.2 | 0.00 | 0.05 | 0.05 | 79 | 1015.6 |
| 20260506041821 | 14 | 100 | 1.6 | 1.6 | 0.00 | 0.05 | 0.05 | 81 | 1015.7 |
| 20260506041317 | 14 | 92 | 0.0 | 1.6 | 0.00 | 0.05 | 0.05 | 81 | 1015.7 |
| 20260506040814 | 14 | 91 | 0.0 | 1.6 | 0.00 | 0.05 | 0.05 | 81 | 1015.6 |
| 20260506040311 | 14 | 155 | 3.2 | 3.2 | 0.00 | 0.05 | 0.05 | 80 | 1015.4 |
| 20260506035808 | 14 | 101 | 3.2 | 3.2 | 0.00 | 0.05 | 0.05 | 81 | 1015.3 |
| 20260506035306 | 14 | 88 | 1.6 | 3.2 | 0.00 | 0.05 | 0.05 | 81 | 1015.4 |
| 20260506034802 | 14 | 96 | 1.6 | 4.8 | 0.00 | 0.05 | 0.05 | 81 | 1015.3 |
| 20260506034259 | 14 | 86 | 1.6 | 1.6 | 0.00 | 0.05 | 0.05 | 81 | 1015.2 |
| 20260506033756 | 14 | 71 | 1.6 | 3.2 | 0.00 | 0.05 | 0.05 | 80 | 1015.1 |
| 20260506033253 | 14 | 87 | 0.0 | 0.0 | 0.00 | 0.05 | 0.05 | 80 | 1015.0 |
| 20260506032750 | 14 | 93 | 0.0 | 1.6 | 0.00 | 0.05 | 0.05 | 80 | 1014.9 |
| 20260506032247 | 14 | 101 | 0.0 | 1.6 | 0.00 | 0.05 | 0.05 | 80 | 1014.9 |
| 20260506031743 | 14 | 88 | 0.0 | 0.0 | 0.00 | 0.05 | 0.05 | 79 | 1014.8 |
| 20260506031241 | 14 | 80 | 1.6 | 1.6 | 0.00 | 0.05 | 0.05 | 79 | 1014.9 |
| 20260506030739 | 14 | 55 | 0.0 | 1.6 | 0.00 | 0.05 | 0.05 | 80 | 1014.9 |
| 20260506030236 | 14 | 120 | 1.6 | 1.6 | 0.00 | 0.05 | 0.05 | 80 | 1014.6 |
| 20260506025733 | 14 | 92 | 0.0 | 1.6 | 0.00 | 0.05 | 0.05 | 82 | 1014.7 |
| 20260506025229 | 14 | 141 | 3.2 | 3.2 | 0.00 | 0.05 | 0.05 | 82 | 1014.3 |
| 20260506024726 | 14 | 91 | 1.6 | 3.2 | 0.00 | 0.05 | 0.05 | 82 | 1014.3 |
| 20260506024223 | 14 | 137 | 0.0 | 1.6 | 0.00 | 0.05 | 0.05 | 82 | 1014.6 |
| 20260506023719 | 15 | 142 | 0.0 | 1.6 | 0.00 | 0.05 | 0.05 | 81 | 1014.2 |
| 20260506023217 | 15 | 140 | 0.0 | 1.6 | 0.00 | 0.05 | 0.05 | 80 | 1014.3 |
| 20260506022713 | 15 | 93 | 0.0 | 1.6 | 0.00 | 0.05 | 0.05 | 80 | 1014.2 |
| 20260506022211 | 15 | 98 | 0.0 | 1.6 | 0.00 | 0.05 | 0.05 | 80 | 1014.4 |
| 20260506021709 | 15 | 109 | 1.6 | 1.6 | 0.00 | 0.05 | 0.05 | 80 | 1014.2 |
| 20260506021206 | 15 | 97 | 0.0 | 1.6 | 0.00 | 0.05 | 0.05 | 79 | 1014.1 |
| 20260506020703 | 15 | 156 | 1.6 | 4.8 | 0.00 | 0.05 | 0.05 | 79 | 1014.0 |
| 20260506020200 | 15 | 135 | 3.2 | 3.2 | 0.00 | 0.05 | 0.05 | 80 | 1013.9 |
| 20260506015658 | 15 | 108 | 1.6 | 3.2 | 0.00 | 0.05 | 0.05 | 80 | 1013.8 |
| 20260506015155 | 15 | 151 | 3.2 | 4.8 | 0.00 | 0.05 | 0.05 | 79 | 1014.0 |
| 20260506014652 | 15 | 160 | 4.8 | 4.8 | 0.00 | 0.05 | 0.05 | 79 | 1013.9 |
| 20260506014148 | 15 | 152 | 8.0 | 9.7 | 0.00 | 0.05 | 0.05 | 79 | 1013.9 |
| 20260506013646 | 15 | 120 | 1.6 | 8.0 | 0.00 | 0.05 | 0.05 | 80 | 1014.0 |
| 20260506013143 | 15 | 145 | 4.8 | 9.7 | 0.00 | 0.05 | 0.05 | 79 | 1013.9 |
| 20260506012639 | 15 | 158 | 4.8 | 8.0 | 0.00 | 0.05 | 0.05 | 79 | 1013.9 |
| 20260506012136 | 15 | 147 | 4.8 | 9.7 | 0.00 | 0.05 | 0.05 | 79 | 1013.7 |
| 20260506011633 | 15 | 169 | 6.4 | 9.7 | 0.00 | 0.05 | 0.05 | 79 | 1013.7 |
| 20260506011129 | 15 | 148 | 8.0 | 11.3 | 0.00 | 0.05 | 0.05 | 78 | 1014.0 |
| 20260506010628 | 15 | 116 | 4.8 | 8.0 | 0.00 | 0.05 | 0.05 | 79 | 1013.8 |
| 20260506010125 | 15 | 165 | 8.0 | 9.7 | 0.00 | 0.05 | 0.05 | 78 | 1013.7 |
| 20260506005622 | 15 | 138 | 4.8 | 8.0 | 0.00 | 0.05 | 0.05 | 77 | 1013.8 |
| 20260506005118 | 15 | 134 | 6.4 | 11.3 | 0.00 | 0.05 | 0.05 | 76 | 1013.6 |
| 20260506004615 | 15 | 167 | 9.7 | 12.9 | 0.00 | 0.05 | 0.05 | 76 | 1013.3 |
| 20260506004112 | 15 | 166 | 4.8 | 11.3 | 0.00 | 0.05 | 0.05 | 76 | 1013.5 |
| 20260506003608 | 15 | 143 | 4.8 | 8.0 | 0.00 | 0.05 | 0.05 | 76 | 1013.5 |
| 20260506003104 | 15 | 142 | 4.8 | 9.7 | 0.00 | 0.05 | 0.05 | 76 | 1013.5 |
| 20260506002600 | 15 | 128 | 4.8 | 8.0 | 0.00 | 0.05 | 0.05 | 76 | 1013.5 |
| 20260506002057 | 15 | 155 | 4.8 | 8.0 | 0.00 | 0.05 | 0.05 | 76 | 1013.5 |
| 20260506001553 | 15 | 171 | 6.4 | 9.7 | 0.00 | 0.05 | 0.05 | 74 | 1013.4 |
| 20260506001050 | 15 | 152 | 4.8 | 11.3 | 0.00 | 0.05 | 0.05 | 75 | 1013.3 |
| 20260506000547 | 15 | 161 | 6.4 | 8.0 | 0.00 | 0.05 | 0.05 | 76 | 1013.5 |
| 20260506000045 | 15 | 171 | 6.4 | 11.3 | 0.00 | 0.05 | 0.05 | 75 | 1013.3 |
| 20260505235543 | 15 | 132 | 4.8 | 8.0 | 0.00 | 0.05 | 0.05 | 76 | 1013.4 |
| 20260505235039 | 15 | 174 | 4.8 | 9.7 | 0.00 | 0.05 | 0.05 | 75 | 1013.3 |
| 20260505234536 | 15 | 172 | 4.8 | 4.8 | 0.00 | 0.05 | 0.05 | 76 | 1013.4 |
| 20260505234033 | 15 | 171 | 4.8 | 9.7 | 0.00 | 0.05 | 0.05 | 75 | 1013.4 |
| 20260505233531 | 15 | 139 | 4.8 | 9.7 | 0.00 | 0.05 | 0.05 | 74 | 1013.4 |
| 20260505233028 | 15 | 168 | 6.4 | 9.7 | 0.00 | 0.05 | 0.05 | 74 | 1013.5 |
| 20260505232526 | 16 | 166 | 9.7 | 11.3 | 0.00 | 0.05 | 0.05 | 73 | 1013.4 |
| 20260505232023 | 16 | 153 | 4.8 | 9.7 | 0.00 | 0.05 | 0.05 | 74 | 1013.3 |
| 20260505231520 | 16 | 161 | 4.8 | 8.0 | 0.00 | 0.05 | 0.05 | 74 | 1013.6 |
| 20260505231019 | 16 | 152 | 4.8 | 9.7 | 0.00 | 0.05 | 0.05 | 72 | 1013.7 |
| 20260505230515 | 16 | 164 | 4.8 | 8.0 | 0.00 | 0.05 | 0.05 | 73 | 1013.5 |
| 20260505230012 | 16 | 148 | 3.2 | 8.0 | 0.00 | 0.05 | 0.05 | 72 | 1013.7 |
| 20260505225509 | 16 | 168 | 6.4 | 9.7 | 0.00 | 0.05 | 0.05 | 73 | 1013.8 |
| 20260505225005 | 16 | 123 | 1.6 | 8.0 | 0.00 | 0.05 | 0.05 | 71 | 1013.6 |
| 20260505224502 | 16 | 114 | 3.2 | 8.0 | 0.00 | 0.05 | 0.05 | 70 | 1013.8 |
| 20260505223959 | 16 | 130 | 3.2 | 4.8 | 0.00 | 0.05 | 0.05 | 70 | 1013.9 |
| 20260505223456 | 16 | 101 | 0.0 | 9.7 | 0.00 | 0.05 | 0.05 | 72 | 1013.9 |
| 20260505222952 | 16 | 188 | 4.8 | 4.8 | 0.00 | 0.05 | 0.05 | 71 | 1014.0 |
| 20260505222448 | 16 | 153 | 3.2 | 4.8 | 0.00 | 0.05 | 0.05 | 71 | 1014.1 |
| 20260505221944 | 15 | 132 | 4.8 | 8.0 | 0.00 | 0.05 | 0.05 | 71 | 1014.1 |
| 20260505221442 | 15 | 172 | 4.8 | 9.7 | 0.00 | 0.05 | 0.05 | 72 | 1014.0 |
| 20260505220939 | 15 | 146 | 1.6 | 4.8 | 0.00 | 0.05 | 0.05 | 73 | 1014.0 |
| 20260505220436 | 15 | 156 | 4.8 | 4.8 | 0.00 | 0.05 | 0.05 | 73 | 1014.2 |
| 20260505215933 | 15 | 119 | 4.8 | 8.0 | 0.00 | 0.05 | 0.05 | 74 | 1014.1 |
| 20260505215431 | 15 | 149 | 4.8 | 9.7 | 0.00 | 0.05 | 0.05 | 73 | 1014.0 |
| 20260505214929 | 15 | 122 | 6.4 | 8.0 | 0.00 | 0.05 | 0.05 | 75 | 1014.1 |
| 20260505214427 | 15 | 103 | 1.6 | 3.2 | 0.00 | 0.05 | 0.05 | 76 | 1014.0 |
| 20260505213924 | 15 | 161 | 6.4 | 8.0 | 0.00 | 0.05 | 0.05 | 75 | 1014.0 |
| 20260505213421 | 15 | 178 | 4.8 | 4.8 | 0.00 | 0.05 | 0.05 | 75 | 1014.2 |
| 20260505212917 | 15 | 104 | 0.0 | 1.6 | 0.00 | 0.05 | 0.05 | 75 | 1014.1 |
| 20260505212414 | 15 | 168 | 3.2 | 8.0 | 0.00 | 0.05 | 0.05 | 76 | 1014.1 |
| 20260505211910 | 15 | 147 | 4.8 | 4.8 | 0.00 | 0.05 | 0.05 | 76 | 1014.2 |
| 20260505211409 | 15 | 168 | 3.2 | 3.2 | 0.00 | 0.05 | 0.05 | 76 | 1014.4 |
| 20260505210904 | 15 | 170 | 4.8 | 4.8 | 0.00 | 0.05 | 0.05 | 76 | 1014.2 |
| 20260505210402 | 15 | 173 | 3.2 | 4.8 | 0.00 | 0.05 | 0.05 | 75 | 1014.1 |
| 20260505205858 | 15 | 166 | 3.2 | 4.8 | 0.00 | 0.05 | 0.05 | 74 | 1014.3 |
| 20260505205357 | 15 | 169 | 4.8 | 4.8 | 0.00 | 0.05 | 0.05 | 74 | 1014.2 |
| 20260505204853 | 15 | 355 | 0.0 | 4.8 | 0.00 | 0.05 | 0.05 | 72 | 1014.3 |
| 20260505204351 | 15 | 311 | 1.6 | 3.2 | 0.00 | 0.05 | 0.05 | 72 | 1014.2 |
| 20260505203848 | 16 | 233 | 3.2 | 4.8 | 0.00 | 0.05 | 0.05 | 72 | 1014.3 |
| 20260505203344 | 16 | 174 | 4.8 | 8.0 | 0.00 | 0.05 | 0.05 | 71 | 1013.9 |
| 20260505202841 | 16 | 76 | 0.0 | 8.0 | 0.00 | 0.05 | 0.05 | 70 | 1014.0 |
| 20260505202337 | 16 | 182 | 1.6 | 4.8 | 0.00 | 0.05 | 0.05 | 72 | 1014.1 |
| 20260505201834 | 16 | 339 | 3.2 | 8.0 | 0.00 | 0.05 | 0.05 | 69 | 1014.1 |
| 20260505201332 | 16 | 178 | 3.2 | 4.8 | 0.00 | 0.05 | 0.05 | 73 | 1014.4 |
| 20260505200830 | 16 | 175 | 6.4 | 11.3 | 0.00 | 0.05 | 0.05 | 69 | 1014.2 |
| 20260505200326 | 15 | 176 | 3.2 | 4.8 | 0.00 | 0.05 | 0.05 | 77 | 1014.4 |
| 20260505195821 | 15 | 112 | 1.6 | 4.8 | 0.00 | 0.05 | 0.05 | 77 | 1014.2 |
| 20260505195319 | 15 | 135 | 1.6 | 3.2 | 0.00 | 0.05 | 0.05 | 75 | 1014.4 |
| 20260505194816 | 15 | 14 | 3.2 | 4.8 | 0.00 | 0.05 | 0.05 | 78 | 1014.4 |
| 20260505194313 | 15 | 354 | 1.6 | 3.2 | 0.00 | 0.05 | 0.05 | 77 | 1014.7 |
| 20260505193808 | 14 | 162 | 3.2 | 3.2 | 0.00 | 0.05 | 0.05 | 76 | 1014.7 |
| 20260505193307 | 14 | 276 | 4.8 | 4.8 | 0.00 | 0.05 | 0.05 | 76 | 1014.4 |
| 20260505192804 | 14 | 354 | 3.2 | 4.8 | 0.00 | 0.05 | 0.05 | 78 | 1014.7 |
| 20260505192305 | 14 | 146 | 1.6 | 4.8 | 0.00 | 0.05 | 0.05 | 80 | 1014.9 |
| 20260505191800 | 13 | 168 | 1.6 | 4.8 | 0.00 | 0.05 | 0.05 | 79 | 1014.9 |
| 20260505191258 | 13 | 157 | 4.8 | 4.8 | 0.00 | 0.05 | 0.05 | 80 | 1014.3 |
| 20260505190754 | 13 | 224 | 1.6 | 3.2 | 0.00 | 0.05 | 0.05 | 80 | 1014.6 |
| 20260505190249 | 14 | 341 | 4.8 | 8.0 | 0.00 | 0.05 | 0.05 | 79 | 1014.6 |
| 20260505185746 | 13 | 174 | 3.2 | 3.2 | 0.00 | 0.05 | 0.05 | 79 | 1014.6 |
| 20260505185242 | 14 | 197 | 3.2 | 9.7 | 0.00 | 0.05 | 0.05 | 80 | 1014.6 |
| 20260505184738 | 14 | 322 | 4.8 | 4.8 | 0.00 | 0.05 | 0.05 | 78 | 1014.4 |
| 20260505184236 | 13 | 256 | 4.8 | 4.8 | 0.00 | 0.05 | 0.05 | 80 | 1014.6 |
| 20260505183733 | 13 | 186 | 3.2 | 8.0 | 0.00 | 0.05 | 0.05 | 82 | 1014.6 |
| 20260505183230 | 13 | 144 | 1.6 | 4.8 | 0.00 | 0.05 | 0.05 | 84 | 1014.2 |
| 20260505182726 | 13 | 290 | 4.8 | 8.0 | 0.00 | 0.05 | 0.05 | 85 | 1014.4 |
| 20260505182223 | 13 | 250 | 3.2 | 3.2 | 0.00 | 0.05 | 0.05 | 84 | 1014.6 |
| 20260505181720 | 13 | 223 | 3.2 | 4.8 | 0.00 | 0.05 | 0.05 | 84 | 1014.6 |
| 20260505181217 | 12 | 80 | 0.0 | 3.2 | 0.00 | 0.05 | 0.05 | 86 | 1014.7 |
| 20260505180714 | 12 | 258 | 3.2 | 4.8 | 0.00 | 0.05 | 0.05 | 86 | 1014.4 |
| 20260505180210 | 12 | 249 | 3.2 | 4.8 | 0.00 | 0.05 | 0.05 | 87 | 1014.7 |
| 20260505175706 | 12 | 272 | 4.8 | 8.0 | 0.00 | 0.05 | 0.05 | 87 | 1014.8 |
| 20260505175203 | 12 | 4 | 1.6 | 3.2 | 0.00 | 0.05 | 0.05 | 87 | 1014.8 |
| 20260505174659 | 12 | 217 | 1.6 | 3.2 | 0.00 | 0.05 | 0.05 | 87 | 1014.4 |
| 20260505174155 | 12 | 303 | 1.6 | 1.6 | 0.00 | 0.05 | 0.05 | 88 | 1014.7 |
| 20260505173652 | 12 | 119 | 0.0 | 3.2 | 0.00 | 0.05 | 0.05 | 88 | 1014.6 |
| 20260505173149 | 12 | 167 | 1.6 | 4.8 | 0.00 | 0.05 | 0.05 | 89 | 1014.4 |
| 20260505172647 | 12 | 173 | 4.8 | 4.8 | 0.00 | 0.05 | 0.05 | 89 | 1014.4 |
| 20260505172144 | 12 | 164 | 3.2 | 4.8 | 0.00 | 0.05 | 0.05 | 92 | 1014.3 |
| 20260505171643 | 11 | 106 | 1.6 | 3.2 | 0.00 | 0.05 | 0.05 | 93 | 1014.6 |
| 20260505171141 | 11 | 171 | 1.6 | 1.6 | 0.00 | 0.05 | 0.05 | 93 | 1014.4 |
| 20260505170638 | 11 | 94 | 0.0 | 4.8 | 0.00 | 0.05 | 0.05 | 93 | 1014.4 |
| 20260505170134 | 11 | 269 | 3.2 | 4.8 | 0.00 | 0.05 | 0.05 | 92 | 1014.7 |
| 20260505165629 | 11 | 204 | 0.0 | 3.2 | 0.00 | 0.05 | 0.05 | 92 | 1014.6 |
| 20260505165126 | 11 | 1 | 1.6 | 3.2 | 0.00 | 0.05 | 0.05 | 92 | 1014.7 |
| 20260505164621 | 11 | 272 | 1.6 | 3.2 | 0.00 | 0.05 | 0.05 | 92 | 1014.4 |
| 20260505164119 | 11 | 343 | 0.0 | 3.2 | 0.00 | 0.05 | 0.05 | 93 | 1014.6 |
| 20260505163617 | 11 | 8 | 1.6 | 3.2 | 0.00 | 0.05 | 0.05 | 93 | 1014.4 |
| 20260505163114 | 11 | 310 | 3.2 | 3.2 | 0.00 | 0.05 | 0.05 | 93 | 1014.6 |
| 20260505162612 | 11 | 305 | 0.0 | 1.6 | 0.00 | 0.05 | 0.05 | 93 | 1014.3 |
| 20260505162109 | 11 | 323 | 1.6 | 1.6 | 0.00 | 0.05 | 0.05 | 94 | 1014.3 |
| 20260505161606 | 11 | 281 | 1.6 | 1.6 | 0.00 | 0.05 | 0.05 | 95 | 1014.2 |
| 20260505161103 | 11 | 166 | 1.6 | 3.2 | 0.00 | 0.05 | 0.05 | 95 | 1014.3 |
| 20260505160601 | 10 | 85 | 0.0 | 1.6 | 0.00 | 0.05 | 0.05 | 95 | 1014.2 |
| 20260505153038 | 10 | 184 | 0.0 | 1.6 | 0.00 | 0.05 | 0.05 | 96 | 1014.1 |
| 20260505152534 | 10 | 176 | 1.6 | 1.6 | 0.00 | 0.05 | 0.05 | 96 | 1013.9 |
| 20260505152030 | 10 | 176 | 0.0 | 1.6 | 0.00 | 0.05 | 0.05 | 96 | 1014.1 |
| 20260505151531 | 10 | 176 | 1.6 | 3.2 | 0.00 | 0.05 | 0.05 | 96 | 1013.9 |
| 20260505151029 | 10 | 169 | 0.0 | 3.2 | 0.00 | 0.05 | 0.05 | 96 | 1013.8 |
| 20260505150525 | 10 | 162 | 1.6 | 1.6 | 0.00 | 0.05 | 0.05 | 96 | 1013.9 |
| 20260505140450 | 10 | 159 | 0.0 | 1.6 | 0.00 | 0.05 | 0.05 | 96 | 1013.5 |
| 20260505124903 | 10 | 162 | 0.0 | 0.0 | 0.00 | 0.05 | 0.05 | 96 | 1012.9 |
| 20260505124400 | 10 | 162 | 0.0 | 1.6 | 0.00 | 0.05 | 0.05 | 96 | 1013.0 |
| 20260505123856 | 10 | 162 | 0.0 | 0.0 | 0.00 | 0.05 | 0.05 | 96 | 1013.1 |
| 20260505123353 | 10 | 162 | 0.0 | 1.6 | 0.00 | 0.05 | 0.05 | 96 | 1013.0 |
| 20260505122849 | 10 | 162 | 0.0 | 0.0 | 0.00 | 0.05 | 0.05 | 95 | 1013.0 |
| 20260505122346 | 10 | 162 | 0.0 | 0.0 | 0.00 | 0.05 | 0.05 | 95 | 1013.1 |
| 20260505121843 | 10 | 162 | 0.0 | 1.6 | 0.00 | 0.05 | 0.05 | 95 | 1013.1 |
| 20260505121340 | 10 | 158 | 1.6 | 1.6 | 0.00 | 0.05 | 0.05 | 95 | 1013.2 |
| 20260505120836 | 10 | 159 | 0.0 | 1.6 | 0.00 | 0.05 | 0.05 | 95 | 1013.1 |
| 20260505120332 | 10 | 159 | 0.0 | 1.6 | 0.00 | 0.05 | 0.05 | 95 | 1013.0 |
| 20260505115831 | 10 | 160 | 0.0 | 1.6 | 0.00 | 0.05 | 0.05 | 95 | 1012.8 |
| 20260505115328 | 10 | 160 | 0.0 | 0.0 | 0.00 | 0.05 | 0.05 | 95 | 1012.7 |
| 20260505114826 | 10 | 160 | 0.0 | 1.6 | 0.00 | 0.05 | 0.05 | 95 | 1012.8 |
| 20260505114322 | 10 | 161 | 1.6 | 1.6 | 0.00 | 0.05 | 0.05 | 95 | 1012.8 |
| 20260505113819 | 10 | 161 | 1.6 | 1.6 | 0.00 | 0.05 | 0.05 | 95 | 1012.9 |
| 20260505113315 | 10 | 152 | 1.6 | 3.2 | 0.00 | 0.05 | 0.05 | 94 | 1013.1 |
| 20260505112811 | 10 | 132 | 0.0 | 1.6 | 0.00 | 0.05 | 0.05 | 94 | 1013.1 |
| 20260505112309 | 10 | 132 | 0.0 | 0.0 | 0.00 | 0.05 | 0.05 | 94 | 1013.0 |
| 20260505111804 | 10 | 135 | 1.6 | 1.6 | 0.00 | 0.05 | 0.05 | 94 | 1013.1 |
| 20260505111300 | 10 | 133 | 0.0 | 1.6 | 0.00 | 0.05 | 0.05 | 94 | 1013.0 |
| 20260505110756 | 10 | 91 | 0.0 | 1.6 | 0.00 | 0.05 | 0.05 | 94 | 1012.9 |
| 20260505110254 | 10 | 53 | 1.6 | 1.6 | 0.00 | 0.05 | 0.05 | 93 | 1013.0 |